| time (UTC) | temp C | wind direction | speed KPH | gust KPH | rain 1hr cm | rain 24hr cm | rain mn cm | humidity % | barometer mb |
| 20260506201542 | 14 | 159 | 4.8 | 20.9 | 0.00 | 0.18 | 0.20 | 95 | 1007.2 |
| 20260506201233 | 15 | 119 | 6.4 | 20.9 | 0.00 | 0.18 | 0.18 | 95 | 1007.6 |
| 20260506201020 | 14 | 128 | 3.2 | 14.5 | 0.00 | 0.18 | 0.18 | 96 | 1007.2 |
| 20260506200800 | 15 | 355 | 6.4 | 14.5 | 0.00 | 0.18 | 0.18 | 95 | 1007.7 |
| 20260506200544 | 14 | 109 | 3.2 | 11.3 | 0.00 | 0.18 | 0.18 | 95 | 1007.4 |
| 20260506200226 | 15 | 131 | 4.8 | 12.9 | 0.00 | 0.18 | 0.18 | 95 | 1007.6 |
| 20260506200046 | 14 | 207 | 3.2 | 12.9 | 0.03 | 0.18 | 0.18 | 95 | 1007.4 |
| 20260506195725 | 15 | 106 | 6.4 | 12.9 | 0.03 | 0.18 | 0.18 | 95 | 1007.6 |
| 20260506195546 | 14 | 161 | 1.6 | 12.9 | 0.03 | 0.18 | 0.18 | 95 | 1007.4 |
| 20260506195238 | 15 | 220 | 4.8 | 12.9 | 0.03 | 0.18 | 0.18 | 95 | 1007.7 |
| 20260506195044 | 14 | 130 | 3.2 | 20.9 | 0.03 | 0.18 | 0.18 | 95 | 1007.4 |
| 20260506194727 | 15 | 198 | 1.6 | 20.9 | 0.03 | 0.18 | 0.18 | 95 | 1007.9 |
| 20260506194516 | 14 | 156 | 4.8 | 20.9 | 0.03 | 0.18 | 0.18 | 95 | 1007.6 |
| 20260506194245 | 15 | 130 | 6.4 | 19.3 | 0.03 | 0.18 | 0.18 | 95 | 1007.9 |
| 20260506194050 | 15 | 119 | 4.8 | 14.5 | 0.03 | 0.18 | 0.18 | 95 | 1007.5 |
| 20260506193759 | 15 | 141 | 4.8 | 17.7 | 0.03 | 0.18 | 0.18 | 96 | 1007.9 |
| 20260506193502 | 15 | 128 | 3.2 | 17.7 | 0.03 | 0.18 | 0.18 | 96 | 1007.5 |
| 20260506193229 | 15 | 119 | 3.2 | 17.7 | 0.03 | 0.18 | 0.18 | 95 | 1007.9 |
| 20260506193108 | 14 | 186 | 4.8 | 17.7 | 0.03 | 0.18 | 0.18 | 95 | 1007.6 |
| 20260506192744 | 15 | 184 | 4.8 | 16.1 | 0.05 | 0.18 | 0.18 | 95 | 1008.0 |
| 20260506192604 | 15 | 129 | 4.8 | 19.3 | 0.08 | 0.18 | 0.18 | 96 | 1007.7 |
| 20260506192233 | 15 | 156 | 4.8 | 19.3 | 0.08 | 0.18 | 0.18 | 96 | 1008.1 |
| 20260506192050 | 15 | 171 | 4.8 | 19.3 | 0.08 | 0.18 | 0.18 | 96 | 1007.8 |
| 20260506191731 | 15 | 158 | 3.2 | 12.9 | 0.08 | 0.18 | 0.18 | 96 | 1008.1 |
| 20260506191536 | 15 | 144 | 3.2 | 14.5 | 0.08 | 0.18 | 0.18 | 95 | 1007.9 |
| 20260506191228 | 15 | 171 | 4.8 | 14.5 | 0.08 | 0.18 | 0.18 | 95 | 1008.2 |
| 20260506191006 | 14 | 100 | 3.2 | 14.5 | 0.08 | 0.18 | 0.18 | 95 | 1008.0 |
| 20260506190728 | 15 | 113 | 4.8 | 14.5 | 0.08 | 0.18 | 0.18 | 95 | 1008.1 |
| 20260506190554 | 14 | 158 | 4.8 | 14.5 | 0.08 | 0.18 | 0.18 | 95 | 1007.9 |
| 20260506190245 | 15 | 182 | 3.2 | 9.7 | 0.08 | 0.18 | 0.18 | 95 | 1008.1 |
| 20260506190007 | 14 | 149 | 3.2 | 11.3 | 0.08 | 0.15 | 0.15 | 95 | 1008.0 |
| 20260506185736 | 15 | 240 | 3.2 | 16.1 | 0.08 | 0.15 | 0.15 | 95 | 1008.2 |
| 20260506185555 | 14 | 157 | 4.8 | 16.1 | 0.08 | 0.15 | 0.15 | 95 | 1008.0 |
| 20260506185232 | 15 | 146 | 4.8 | 16.1 | 0.08 | 0.15 | 0.15 | 95 | 1008.4 |
| 20260506185040 | 14 | 195 | 4.8 | 16.1 | 0.10 | 0.15 | 0.15 | 95 | 1008.1 |
| 20260506184738 | 15 | 69 | 6.4 | 14.5 | 0.10 | 0.15 | 0.15 | 95 | 1008.3 |
| 20260506184508 | 14 | 153 | 8.0 | 14.5 | 0.10 | 0.15 | 0.15 | 95 | 1008.0 |
| 20260506184230 | 14 | 130 | 4.8 | 11.3 | 0.10 | 0.15 | 0.15 | 95 | 1008.3 |
| 20260506184006 | 14 | 139 | 3.2 | 20.9 | 0.10 | 0.15 | 0.15 | 95 | 1008.1 |
| 20260506183728 | 14 | 169 | 4.8 | 20.9 | 0.13 | 0.15 | 0.15 | 95 | 1008.5 |
| 20260506183521 | 14 | 145 | 3.2 | 20.9 | 0.13 | 0.15 | 0.15 | 95 | 1008.3 |
| 20260506183226 | 14 | 213 | 8.0 | 20.9 | 0.13 | 0.15 | 0.15 | 95 | 1008.5 |
| 20260506183021 | 14 | 121 | 4.8 | 17.7 | 0.15 | 0.15 | 0.15 | 95 | 1008.2 |
| 20260506182801 | 14 | 161 | 3.2 | 17.7 | 0.13 | 0.13 | 0.13 | 94 | 1008.5 |
| 20260506182538 | 14 | 152 | 3.2 | 17.7 | 0.10 | 0.10 | 0.10 | 94 | 1008.2 |
| 20260506182225 | 14 | 274 | 11.3 | 17.7 | 0.10 | 0.10 | 0.10 | 94 | 1008.3 |
| 20260506182042 | 14 | 173 | 1.6 | 14.5 | 0.10 | 0.10 | 0.10 | 94 | 1008.1 |
| 20260506181733 | 15 | 159 | 6.4 | 16.1 | 0.10 | 0.10 | 0.10 | 94 | 1008.3 |
| 20260506181518 | 14 | 117 | 3.2 | 16.1 | 0.10 | 0.10 | 0.10 | 94 | 1008.0 |
| 20260506181229 | 15 | 170 | 3.2 | 16.1 | 0.10 | 0.10 | 0.10 | 94 | 1008.3 |
| 20260506181107 | 14 | 185 | 8.0 | 16.1 | 0.10 | 0.10 | 0.10 | 94 | 1008.1 |
| 20260506180726 | 15 | 153 | 4.8 | 14.5 | 0.10 | 0.10 | 0.10 | 94 | 1008.3 |
| 20260506180531 | 14 | 170 | 3.2 | 12.9 | 0.10 | 0.10 | 0.10 | 94 | 1008.1 |
| 20260506180240 | 15 | 108 | 4.8 | 11.3 | 0.10 | 0.10 | 0.10 | 94 | 1008.6 |
| 20260506180008 | 15 | 126 | 3.2 | 9.7 | 0.08 | 0.08 | 0.08 | 94 | 1008.1 |
| 20260506175738 | 15 | 156 | 3.2 | 9.7 | 0.08 | 0.08 | 0.08 | 93 | 1008.6 |
| 20260506175558 | 15 | 144 | 3.2 | 9.7 | 0.08 | 0.08 | 0.08 | 93 | 1008.4 |
| 20260506175224 | 15 | 133 | 3.2 | 11.3 | 0.05 | 0.05 | 0.05 | 93 | 1008.7 |
| 20260506175101 | 15 | 163 | 1.6 | 11.3 | 0.05 | 0.05 | 0.05 | 93 | 1008.5 |
| 20260506174725 | 15 | 142 | 6.4 | 11.3 | 0.05 | 0.05 | 0.05 | 93 | 1008.9 |
| 20260506174559 | 15 | 151 | 1.6 | 9.7 | 0.05 | 0.05 | 0.05 | 92 | 1008.7 |
| 20260506174225 | 15 | 155 | 3.2 | 11.3 | 0.05 | 0.05 | 0.05 | 92 | 1009.0 |
| 20260506174059 | 15 | 159 | 0.0 | 11.3 | 0.05 | 0.05 | 0.05 | 92 | 1008.9 |
| 20260506173723 | 15 | 161 | 3.2 | 11.3 | 0.03 | 0.03 | 0.03 | 91 | 1009.2 |
| 20260506173602 | 15 | 156 | 3.2 | 11.3 | 0.03 | 0.03 | 0.03 | 91 | 1008.9 |
| 20260506173258 | 15 | 146 | 1.6 | 11.3 | 0.03 | 0.03 | 0.03 | 91 | 1009.2 |
| 20260506173032 | 15 | 174 | 1.6 | 11.3 | 0.00 | 0.00 | 0.00 | 90 | 1009.1 |
| 20260506172736 | 15 | 170 | 4.8 | 11.3 | 0.00 | 0.00 | 0.00 | 89 | 1009.4 |
| 20260506172519 | 15 | 133 | 3.2 | 9.7 | 0.00 | 0.00 | 0.00 | 89 | 1009.1 |
| 20260506172233 | 16 | 154 | 3.2 | 9.7 | 0.00 | 0.00 | 0.00 | 88 | 1009.4 |
| 20260506172057 | 15 | 223 | 1.6 | 9.7 | 0.00 | 0.00 | 0.00 | 88 | 1009.1 |
| 20260506171730 | 16 | 284 | 3.2 | 14.5 | 0.00 | 0.00 | 0.00 | 88 | 1009.4 |
| 20260506171553 | 15 | 136 | 3.2 | 16.1 | 0.00 | 0.00 | 0.00 | 87 | 1009.2 |
| 20260506171228 | 16 | 156 | 6.4 | 16.1 | 0.00 | 0.00 | 0.00 | 87 | 1009.5 |
| 20260506171035 | 16 | 88 | 1.6 | 16.1 | 0.00 | 0.00 | 0.00 | 87 | 1009.3 |
| 20260506170727 | 16 | 184 | 3.2 | 14.5 | 0.00 | 0.00 | 0.00 | 86 | 1009.7 |
| 20260506170509 | 16 | 198 | 6.4 | 17.7 | 0.00 | 0.00 | 0.00 | 85 | 1009.3 |
| 20260506170230 | 16 | 134 | 3.2 | 17.7 | 0.00 | 0.00 | 0.00 | 85 | 1009.7 |
| 20260506170016 | 16 | 93 | 6.4 | 17.7 | 0.00 | 0.00 | 0.00 | 84 | 1009.3 |
| 20260506165727 | 16 | 155 | 6.4 | 14.5 | 0.00 | 0.00 | 0.00 | 84 | 1009.7 |
| 20260506165638 | 16 | 160 | 4.8 | 14.5 | 0.00 | 0.00 | 0.00 | 84 | 1009.4 |
| 20260506165245 | 16 | 165 | 3.2 | 14.5 | 0.00 | 0.00 | 0.00 | 84 | 1009.6 |
| 20260506165031 | 16 | 186 | 3.2 | 22.5 | 0.00 | 0.00 | 0.00 | 84 | 1009.4 |
| 20260506164744 | 17 | 166 | 6.4 | 22.5 | 0.00 | 0.00 | 0.00 | 83 | 1009.8 |
| 20260506164552 | 16 | 119 | 3.2 | 27.4 | 0.00 | 0.00 | 0.00 | 83 | 1009.5 |
| 20260506164230 | 17 | 124 | 11.3 | 27.4 | 0.00 | 0.00 | 0.00 | 82 | 1009.9 |
| 20260506164053 | 16 | 119 | 6.4 | 27.4 | 0.00 | 0.00 | 0.00 | 83 | 1009.6 |
| 20260506163804 | 17 | 204 | 9.7 | 27.4 | 0.00 | 0.00 | 0.00 | 82 | 1009.9 |
| 20260506163514 | 17 | 293 | 6.4 | 16.1 | 0.00 | 0.00 | 0.00 | 82 | 1009.5 |
| 20260506163239 | 17 | 172 | 8.0 | 16.1 | 0.00 | 0.00 | 0.00 | 82 | 1009.7 |
| 20260506163106 | 17 | 113 | 4.8 | 16.1 | 0.00 | 0.00 | 0.00 | 82 | 1009.5 |
| 20260506162726 | 17 | 115 | 6.4 | 14.5 | 0.00 | 0.00 | 0.00 | 81 | 1009.8 |
| 20260506162503 | 17 | 164 | 4.8 | 14.5 | 0.00 | 0.00 | 0.00 | 81 | 1009.4 |
| 20260506162224 | 17 | 156 | 4.8 | 14.5 | 0.00 | 0.00 | 0.00 | 81 | 1009.8 |
| 20260506162019 | 17 | 153 | 6.4 | 14.5 | 0.00 | 0.00 | 0.00 | 81 | 1009.4 |
| 20260506161735 | 17 | 246 | 3.2 | 16.1 | 0.00 | 0.00 | 0.00 | 82 | 1009.6 |
| 20260506161605 | 17 | 157 | 1.6 | 16.1 | 0.00 | 0.00 | 0.00 | 82 | 1009.4 |
| 20260506161250 | 17 | 167 | 6.4 | 24.1 | 0.00 | 0.00 | 0.00 | 81 | 1009.8 |
| 20260506161006 | 17 | 126 | 1.6 | 24.1 | 0.00 | 0.00 | 0.00 | 82 | 1009.5 |
| 20260506160745 | 17 | 51 | 6.4 | 24.1 | 0.00 | 0.00 | 0.00 | 81 | 1010.0 |
| 20260506160536 | 17 | 154 | 8.0 | 24.1 | 0.00 | 0.00 | 0.00 | 80 | 1009.7 |
| 20260506160223 | 17 | 173 | 4.8 | 17.7 | 0.00 | 0.00 | 0.00 | 80 | 1010.2 |
| 20260506160030 | 17 | 201 | 3.2 | 17.7 | 0.00 | 0.00 | 0.00 | 80 | 1009.9 |
| 20260506155730 | 17 | 159 | 3.2 | 8.0 | 0.00 | 0.00 | 0.00 | 81 | 1010.1 |
| 20260506155525 | 17 | 174 | 3.2 | 8.0 | 0.00 | 0.00 | 0.00 | 81 | 1009.9 |
| 20260506155227 | 17 | 215 | 3.2 | 14.5 | 0.00 | 0.00 | 0.00 | 82 | 1010.2 |
| 20260506155030 | 17 | 184 | 1.6 | 16.1 | 0.00 | 0.00 | 0.00 | 82 | 1009.7 |
| 20260506154728 | 17 | 82 | 4.8 | 16.1 | 0.00 | 0.00 | 0.00 | 81 | 1010.2 |
| 20260506154527 | 17 | 131 | 4.8 | 16.1 | 0.00 | 0.00 | 0.00 | 82 | 1010.0 |
| 20260506154242 | 17 | 251 | 3.2 | 14.5 | 0.00 | 0.00 | 0.00 | 81 | 1010.3 |
| 20260506154025 | 17 | 151 | 3.2 | 14.5 | 0.00 | 0.00 | 0.00 | 81 | 1009.9 |
| 20260506153733 | 17 | 132 | 4.8 | 14.5 | 0.00 | 0.00 | 0.00 | 81 | 1010.3 |
| 20260506153604 | 17 | 130 | 4.8 | 14.5 | 0.00 | 0.00 | 0.00 | 81 | 1009.9 |
| 20260506153232 | 17 | 138 | 8.0 | 16.1 | 0.00 | 0.00 | 0.00 | 81 | 1010.1 |
| 20260506153048 | 17 | 161 | 1.6 | 16.1 | 0.00 | 0.00 | 0.00 | 81 | 1009.8 |
| 20260506152729 | 17 | 134 | 8.0 | 22.5 | 0.00 | 0.00 | 0.00 | 81 | 1010.0 |
| 20260506152531 | 17 | 141 | 4.8 | 22.5 | 0.00 | 0.00 | 0.00 | 81 | 1009.7 |
| 20260506152227 | 17 | 160 | 9.7 | 22.5 | 0.00 | 0.00 | 0.00 | 81 | 1010.0 |
| 20260506152006 | 17 | 162 | 3.2 | 14.5 | 0.00 | 0.00 | 0.00 | 81 | 1009.6 |
| 20260506151724 | 17 | 144 | 8.0 | 19.3 | 0.00 | 0.00 | 0.00 | 81 | 1009.9 |
| 20260506151556 | 17 | 128 | 4.8 | 19.3 | 0.00 | 0.00 | 0.00 | 81 | 1009.6 |
| 20260506151245 | 17 | 151 | 4.8 | 19.3 | 0.00 | 0.00 | 0.00 | 80 | 1010.0 |
| 20260506151057 | 17 | 63 | 8.0 | 19.3 | 0.00 | 0.00 | 0.00 | 80 | 1009.8 |
| 20260506150734 | 18 | 123 | 4.8 | 16.1 | 0.00 | 0.00 | 0.00 | 81 | 1010.1 |
| 20260506150543 | 17 | 35 | 8.0 | 16.1 | 0.00 | 0.00 | 0.00 | 80 | 1009.8 |
| 20260506150232 | 18 | 215 | 4.8 | 12.9 | 0.00 | 0.00 | 0.00 | 80 | 1010.0 |
| 20260506150017 | 17 | 15 | 3.2 | 19.3 | 0.00 | 0.00 | 0.00 | 80 | 1009.7 |
| 20260506145751 | 18 | 147 | 4.8 | 19.3 | 0.00 | 0.00 | 0.00 | 79 | 1010.0 |
| 20260506145547 | 17 | 160 | 6.4 | 19.3 | 0.00 | 0.00 | 0.00 | 79 | 1009.6 |
| 20260506145228 | 18 | 92 | 6.4 | 20.9 | 0.00 | 0.00 | 0.00 | 80 | 1010.2 |
| 20260506145033 | 17 | 242 | 4.8 | 20.9 | 0.00 | 0.00 | 0.00 | 79 | 1009.8 |
| 20260506144726 | 18 | 130 | 6.4 | 27.4 | 0.00 | 0.00 | 0.00 | 79 | 1010.1 |
| 20260506144504 | 18 | 76 | 4.8 | 27.4 | 0.00 | 0.00 | 0.00 | 78 | 1009.9 |
| 20260506144226 | 18 | 128 | 8.0 | 27.4 | 0.00 | 0.00 | 0.00 | 77 | 1010.2 |
| 20260506143738 | 19 | 127 | 4.8 | 29.0 | 0.00 | 0.00 | 0.00 | 77 | 1010.3 |
| 20260506143539 | 18 | 184 | 6.4 | 29.0 | 0.00 | 0.00 | 0.00 | 76 | 1009.9 |
| 20260506143246 | 19 | 144 | 4.8 | 17.7 | 0.00 | 0.00 | 0.00 | 76 | 1010.1 |
| 20260506143020 | 19 | 310 | 6.4 | 17.7 | 0.00 | 0.00 | 0.00 | 76 | 1009.8 |
| 20260506142734 | 19 | 164 | 4.8 | 19.3 | 0.00 | 0.00 | 0.00 | 77 | 1010.1 |
| 20260506142552 | 18 | 175 | 1.6 | 19.3 | 0.00 | 0.00 | 0.00 | 78 | 1009.9 |
| 20260506142239 | 19 | 107 | 8.0 | 19.3 | 0.00 | 0.00 | 0.00 | 77 | 1010.2 |
| 20260506142026 | 18 | 126 | 3.2 | 20.9 | 0.00 | 0.00 | 0.00 | 78 | 1010.0 |
| 20260506141735 | 18 | 144 | 6.4 | 20.9 | 0.00 | 0.00 | 0.00 | 78 | 1010.3 |
| 20260506141501 | 18 | 216 | 9.7 | 20.9 | 0.00 | 0.00 | 0.00 | 77 | 1010.1 |
| 20260506141233 | 18 | 121 | 6.4 | 17.7 | 0.00 | 0.00 | 0.00 | 79 | 1010.4 |
| 20260506141054 | 18 | 192 | 4.8 | 17.7 | 0.00 | 0.00 | 0.00 | 79 | 1010.0 |
| 20260506140732 | 18 | 117 | 8.0 | 16.1 | 0.00 | 0.00 | 0.00 | 80 | 1010.4 |
| 20260506140534 | 18 | 107 | 3.2 | 17.7 | 0.00 | 0.00 | 0.00 | 81 | 1010.1 |
| 20260506140230 | 18 | 171 | 4.8 | 20.9 | 0.00 | 0.00 | 0.00 | 81 | 1010.4 |
| 20260506140004 | 17 | 159 | 6.4 | 20.9 | 0.00 | 0.00 | 0.00 | 79 | 1010.1 |
| 20260506135726 | 18 | 161 | 11.3 | 20.9 | 0.00 | 0.00 | 0.00 | 79 | 1010.5 |
| 20260506135549 | 18 | 106 | 9.7 | 20.9 | 0.00 | 0.00 | 0.00 | 79 | 1010.1 |
| 20260506135223 | 18 | 87 | 6.4 | 17.7 | 0.00 | 0.00 | 0.00 | 81 | 1010.1 |
| 20260506135035 | 17 | 285 | 3.2 | 12.9 | 0.00 | 0.00 | 0.00 | 81 | 1009.9 |
| 20260506134726 | 18 | 93 | 6.4 | 12.9 | 0.00 | 0.00 | 0.00 | 81 | 1010.2 |
| 20260506134542 | 17 | 112 | 6.4 | 11.3 | 0.00 | 0.00 | 0.00 | 81 | 1009.9 |
| 20260506134225 | 17 | 199 | 3.2 | 22.5 | 0.00 | 0.00 | 0.00 | 82 | 1010.3 |
| 20260506134030 | 17 | 305 | 4.8 | 22.5 | 0.00 | 0.00 | 0.00 | 81 | 1009.9 |
| 20260506133742 | 17 | 273 | 9.7 | 24.1 | 0.00 | 0.00 | 0.00 | 82 | 1010.2 |
| 20260506133632 | 17 | 138 | 6.4 | 24.1 | 0.00 | 0.00 | 0.00 | 82 | 1009.8 |
| 20260506133228 | 17 | 178 | 6.4 | 24.1 | 0.00 | 0.00 | 0.00 | 82 | 1010.1 |
| 20260506133109 | 17 | 136 | 6.4 | 24.1 | 0.00 | 0.00 | 0.00 | 82 | 1009.8 |
| 20260506132726 | 17 | 181 | 4.8 | 17.7 | 0.00 | 0.00 | 0.00 | 82 | 1010.1 |
| 20260506132605 | 17 | 219 | 3.2 | 17.7 | 0.00 | 0.00 | 0.00 | 83 | 1009.8 |
| 20260506132226 | 17 | 105 | 4.8 | 19.3 | 0.00 | 0.00 | 0.00 | 83 | 1010.1 |
| 20260506132003 | 17 | 300 | 1.6 | 19.3 | 0.00 | 0.00 | 0.00 | 83 | 1009.7 |
| 20260506131800 | 17 | 198 | 4.8 | 19.3 | 0.00 | 0.00 | 0.00 | 83 | 1010.0 |
| 20260506131537 | 16 | 126 | 6.4 | 19.3 | 0.00 | 0.00 | 0.00 | 83 | 1009.8 |
| 20260506131237 | 17 | 174 | 3.2 | 19.3 | 0.00 | 0.00 | 0.00 | 84 | 1010.1 |
| 20260506131023 | 16 | 144 | 1.6 | 19.3 | 0.00 | 0.00 | 0.00 | 84 | 1009.8 |
| 20260506130734 | 17 | 155 | 4.8 | 19.3 | 0.00 | 0.00 | 0.00 | 84 | 1010.2 |
| 20260506130559 | 16 | 75 | 6.4 | 19.3 | 0.00 | 0.00 | 0.00 | 84 | 1009.8 |
| 20260506130231 | 16 | 151 | 8.0 | 17.7 | 0.00 | 0.00 | 0.00 | 84 | 1010.2 |
| 20260506130049 | 16 | 177 | 4.8 | 22.5 | 0.00 | 0.00 | 0.00 | 84 | 1010.0 |
| 20260506125727 | 17 | 143 | 6.4 | 22.5 | 0.00 | 0.00 | 0.00 | 83 | 1010.2 |
| 20260506125531 | 16 | 150 | 6.4 | 22.5 | 0.00 | 0.00 | 0.00 | 83 | 1010.0 |
| 20260506125242 | 17 | 128 | 3.2 | 19.3 | 0.00 | 0.00 | 0.00 | 84 | 1010.4 |
| 20260506125103 | 16 | 49 | 6.4 | 19.3 | 0.00 | 0.00 | 0.00 | 84 | 1010.2 |
| 20260506124758 | 17 | 285 | 1.6 | 16.1 | 0.00 | 0.00 | 0.00 | 85 | 1010.4 |
| 20260506124531 | 16 | 137 | 6.4 | 16.1 | 0.00 | 0.00 | 0.00 | 84 | 1010.2 |
| 20260506124223 | 17 | 127 | 3.2 | 14.5 | 0.00 | 0.00 | 0.00 | 85 | 1010.6 |
| 20260506124033 | 16 | 167 | 3.2 | 14.5 | 0.00 | 0.00 | 0.00 | 86 | 1010.5 |
| 20260506123723 | 16 | 63 | 1.6 | 27.4 | 0.00 | 0.00 | 0.00 | 87 | 1010.8 |
| 20260506123531 | 16 | 126 | 6.4 | 27.4 | 0.00 | 0.00 | 0.00 | 86 | 1010.5 |
| 20260506123233 | 16 | 160 | 9.7 | 27.4 | 0.00 | 0.00 | 0.00 | 87 | 1010.9 |
| 20260506123012 | 16 | 164 | 4.8 | 16.1 | 0.00 | 0.00 | 0.00 | 87 | 1010.6 |
| 20260506122748 | 16 | 141 | 4.8 | 27.4 | 0.00 | 0.00 | 0.00 | 88 | 1010.8 |
| 20260506122535 | 15 | 160 | 3.2 | 27.4 | 0.00 | 0.00 | 0.00 | 88 | 1010.6 |
| 20260506122241 | 16 | 125 | 3.2 | 27.4 | 0.00 | 0.00 | 0.00 | 88 | 1010.8 |
| 20260506122010 | 15 | 192 | 11.3 | 27.4 | 0.00 | 0.00 | 0.00 | 89 | 1010.6 |
| 20260506121729 | 15 | 115 | 4.8 | 17.7 | 0.00 | 0.00 | 0.00 | 89 | 1011.0 |
| 20260506121530 | 15 | 129 | 6.4 | 20.9 | 0.00 | 0.00 | 0.00 | 90 | 1010.5 |
| 20260506121229 | 15 | 153 | 6.4 | 20.9 | 0.00 | 0.00 | 0.00 | 90 | 1010.9 |
| 20260506121001 | 15 | 175 | 3.2 | 20.9 | 0.00 | 0.00 | 0.00 | 90 | 1010.4 |
| 20260506120730 | 15 | 146 | 8.0 | 20.9 | 0.00 | 0.00 | 0.00 | 91 | 1010.7 |
| 20260506120551 | 15 | 127 | 3.2 | 17.7 | 0.00 | 0.00 | 0.00 | 91 | 1010.6 |
| 20260506120226 | 15 | 131 | 4.8 | 17.7 | 0.00 | 0.00 | 0.00 | 91 | 1010.9 |
| 20260506120046 | 14 | 151 | 3.2 | 17.7 | 0.00 | 0.00 | 0.00 | 91 | 1010.7 |
| 20260506115724 | 15 | 151 | 6.4 | 16.1 | 0.00 | 0.00 | 0.00 | 91 | 1010.9 |
| 20260506115526 | 14 | 128 | 6.4 | 17.7 | 0.00 | 0.00 | 0.00 | 91 | 1010.7 |
| 20260506115222 | 15 | 253 | 3.2 | 16.1 | 0.00 | 0.00 | 0.00 | 91 | 1010.8 |
| 20260506115004 | 14 | 153 | 1.6 | 16.1 | 0.00 | 0.00 | 0.00 | 91 | 1010.5 |
| 20260506114737 | 14 | 151 | 8.0 | 16.1 | 0.00 | 0.00 | 0.00 | 92 | 1010.7 |
| 20260506114600 | 14 | 153 | 4.8 | 14.5 | 0.00 | 0.00 | 0.00 | 92 | 1010.5 |
| 20260506114225 | 14 | 143 | 4.8 | 14.5 | 0.00 | 0.00 | 0.00 | 92 | 1010.7 |
| 20260506114055 | 14 | 139 | 6.4 | 14.5 | 0.00 | 0.00 | 0.00 | 92 | 1010.5 |
| 20260506113726 | 14 | 140 | 3.2 | 11.3 | 0.00 | 0.00 | 0.00 | 92 | 1010.9 |
| 20260506113553 | 14 | 137 | 1.6 | 22.5 | 0.00 | 0.00 | 0.00 | 92 | 1010.5 |
| 20260506113224 | 14 | 207 | 4.8 | 22.5 | 0.00 | 0.00 | 0.00 | 92 | 1010.7 |
| 20260506113100 | 13 | 157 | 4.8 | 22.5 | 0.00 | 0.00 | 0.00 | 92 | 1010.5 |
| 20260506112724 | 14 | 150 | 4.8 | 12.9 | 0.00 | 0.00 | 0.00 | 92 | 1010.8 |
| 20260506112600 | 13 | 132 | 1.6 | 12.9 | 0.00 | 0.00 | 0.00 | 93 | 1010.6 |
| 20260506112225 | 14 | 158 | 4.8 | 12.9 | 0.00 | 0.00 | 0.00 | 93 | 1011.0 |
| 20260506112058 | 13 | 148 | 4.8 | 12.9 | 0.00 | 0.00 | 0.00 | 93 | 1010.7 |
| 20260506111800 | 14 | 161 | 4.8 | 11.3 | 0.00 | 0.00 | 0.00 | 93 | 1011.2 |
| 20260506111527 | 13 | 122 | 3.2 | 11.3 | 0.00 | 0.00 | 0.00 | 93 | 1010.8 |
| 20260506111225 | 13 | 172 | 3.2 | 16.1 | 0.00 | 0.00 | 0.00 | 93 | 1011.1 |
| 20260506111027 | 13 | 179 | 3.2 | 19.3 | 0.00 | 0.00 | 0.00 | 93 | 1010.8 |
| 20260506110725 | 13 | 90 | 6.4 | 19.3 | 0.00 | 0.00 | 0.00 | 93 | 1011.1 |
| 20260506110525 | 13 | 157 | 3.2 | 19.3 | 0.00 | 0.00 | 0.00 | 93 | 1010.9 |
| 20260506110225 | 13 | 146 | 4.8 | 14.5 | 0.00 | 0.00 | 0.00 | 93 | 1011.1 |
| 20260506110025 | 13 | 140 | 3.2 | 14.5 | 0.00 | 0.00 | 0.00 | 93 | 1010.7 |
| 20260506105723 | 13 | 285 | 4.8 | 14.5 | 0.00 | 0.00 | 0.00 | 94 | 1010.9 |
| 20260506105527 | 13 | 159 | 3.2 | 12.9 | 0.00 | 0.00 | 0.00 | 94 | 1010.5 |
| 20260506105232 | 13 | 145 | 3.2 | 14.5 | 0.00 | 0.00 | 0.00 | 94 | 1010.8 |
| 20260506105106 | 13 | 160 | 4.8 | 14.5 | 0.00 | 0.00 | 0.00 | 93 | 1010.7 |
| 20260506104746 | 13 | 167 | 3.2 | 14.5 | 0.00 | 0.00 | 0.00 | 93 | 1010.9 |
| 20260506104542 | 13 | 126 | 3.2 | 14.5 | 0.00 | 0.00 | 0.00 | 93 | 1010.8 |
| 20260506104242 | 13 | 134 | 4.8 | 11.3 | 0.00 | 0.00 | 0.00 | 93 | 1011.0 |
| 20260506104021 | 13 | 159 | 3.2 | 8.0 | 0.00 | 0.00 | 0.00 | 93 | 1010.8 |
| 20260506103732 | 13 | 201 | 1.6 | 20.9 | 0.00 | 0.00 | 0.00 | 93 | 1010.9 |
| 20260506103557 | 13 | 165 | 1.6 | 20.9 | 0.00 | 0.00 | 0.00 | 93 | 1010.7 |
| 20260506103236 | 13 | 212 | 3.2 | 20.9 | 0.00 | 0.00 | 0.00 | 93 | 1010.9 |
| 20260506103041 | 13 | 169 | 6.4 | 20.9 | 0.00 | 0.00 | 0.00 | 93 | 1010.5 |
| 20260506102728 | 13 | 201 | 3.2 | 9.7 | 0.00 | 0.00 | 0.00 | 93 | 1010.7 |
| 20260506102535 | 13 | 157 | 3.2 | 17.7 | 0.00 | 0.00 | 0.00 | 93 | 1010.5 |
| 20260506102222 | 13 | 165 | 3.2 | 17.7 | 0.00 | 0.00 | 0.00 | 93 | 1010.6 |
| 20260506102043 | 13 | 154 | 4.8 | 17.7 | 0.00 | 0.00 | 0.00 | 93 | 1010.4 |
| 20260506101740 | 13 | 159 | 4.8 | 9.7 | 0.00 | 0.00 | 0.00 | 93 | 1010.6 |
| 20260506101536 | 13 | 151 | 3.2 | 9.7 | 0.00 | 0.00 | 0.00 | 93 | 1010.4 |
| 20260506101226 | 13 | 178 | 3.2 | 8.0 | 0.00 | 0.00 | 0.00 | 93 | 1010.7 |
| 20260506101029 | 13 | 135 | 1.6 | 9.7 | 0.00 | 0.00 | 0.00 | 93 | 1010.4 |
| 20260506100724 | 13 | 185 | 3.2 | 9.7 | 0.00 | 0.00 | 0.00 | 93 | 1010.5 |
| 20260506100529 | 13 | 173 | 1.6 | 9.7 | 0.00 | 0.00 | 0.00 | 93 | 1010.2 |
| 20260506100226 | 13 | 159 | 4.8 | 9.7 | 0.00 | 0.00 | 0.00 | 93 | 1010.5 |
| 20260506100033 | 13 | 183 | 3.2 | 9.7 | 0.00 | 0.00 | 0.00 | 93 | 1010.3 |
| 20260506095725 | 13 | 170 | 4.8 | 9.7 | 0.00 | 0.00 | 0.00 | 93 | 1010.5 |
| 20260506095535 | 13 | 153 | 3.2 | 9.7 | 0.00 | 0.00 | 0.00 | 93 | 1010.2 |
| 20260506095239 | 13 | 148 | 3.2 | 9.7 | 0.00 | 0.00 | 0.00 | 93 | 1010.5 |
| 20260506095033 | 13 | 167 | 3.2 | 11.3 | 0.00 | 0.00 | 0.00 | 93 | 1010.2 |
| 20260506094759 | 13 | 185 | 3.2 | 11.3 | 0.00 | 0.00 | 0.00 | 92 | 1010.4 |
| 20260506094601 | 13 | 144 | 4.8 | 11.3 | 0.00 | 0.00 | 0.00 | 92 | 1010.2 |
| 20260506094237 | 13 | 140 | 3.2 | 14.5 | 0.00 | 0.00 | 0.00 | 92 | 1010.5 |
| 20260506094048 | 13 | 150 | 1.6 | 14.5 | 0.00 | 0.00 | 0.00 | 92 | 1010.3 |
| 20260506093745 | 13 | 149 | 3.2 | 14.5 | 0.00 | 0.00 | 0.00 | 92 | 1010.5 |
| 20260506093528 | 13 | 169 | 3.2 | 14.5 | 0.00 | 0.00 | 0.00 | 92 | 1010.3 |
| 20260506093234 | 13 | 135 | 3.2 | 6.4 | 0.00 | 0.00 | 0.00 | 92 | 1010.6 |
| 20260506093110 | 13 | 150 | 3.2 | 6.4 | 0.00 | 0.00 | 0.00 | 92 | 1010.2 |
| 20260506092755 | 13 | 184 | 3.2 | 12.9 | 0.00 | 0.00 | 0.00 | 92 | 1010.6 |
| 20260506092548 | 13 | 140 | 1.6 | 12.9 | 0.00 | 0.00 | 0.00 | 92 | 1010.3 |
| 20260506092254 | 13 | 166 | 3.2 | 12.9 | 0.00 | 0.00 | 0.00 | 92 | 1010.6 |
| 20260506092106 | 13 | 148 | 3.2 | 12.9 | 0.00 | 0.00 | 0.00 | 92 | 1010.3 |
| 20260506091730 | 13 | 168 | 3.2 | 11.3 | 0.00 | 0.00 | 0.00 | 92 | 1010.5 |
| 20260506091551 | 13 | 222 | 3.2 | 11.3 | 0.00 | 0.00 | 0.00 | 92 | 1010.2 |
| 20260506091229 | 13 | 123 | 6.4 | 16.1 | 0.00 | 0.00 | 0.00 | 91 | 1010.6 |
| 20260506091034 | 13 | 138 | 4.8 | 16.1 | 0.00 | 0.00 | 0.00 | 92 | 1010.3 |
| 20260506090737 | 13 | 109 | 4.8 | 16.1 | 0.00 | 0.00 | 0.00 | 91 | 1010.6 |
| 20260506090505 | 13 | 165 | 4.8 | 16.1 | 0.00 | 0.00 | 0.00 | 91 | 1010.3 |
| 20260506090228 | 13 | 152 | 4.8 | 12.9 | 0.00 | 0.00 | 0.00 | 91 | 1010.6 |
| 20260506090006 | 13 | 207 | 4.8 | 12.9 | 0.00 | 0.00 | 0.00 | 91 | 1010.4 |
| 20260506085734 | 13 | 162 | 4.8 | 12.9 | 0.00 | 0.00 | 0.00 | 91 | 1010.7 |
| 20260506085550 | 13 | 155 | 6.4 | 12.9 | 0.00 | 0.00 | 0.00 | 91 | 1010.4 |
| 20260506085250 | 13 | 119 | 4.8 | 8.0 | 0.00 | 0.00 | 0.00 | 91 | 1010.6 |
| 20260506085003 | 13 | 167 | 3.2 | 12.9 | 0.00 | 0.00 | 0.00 | 91 | 1010.4 |
| 20260506084727 | 13 | 148 | 3.2 | 12.9 | 0.00 | 0.00 | 0.00 | 91 | 1010.8 |
| 20260506084555 | 13 | 132 | 3.2 | 12.9 | 0.00 | 0.00 | 0.00 | 91 | 1010.4 |
| 20260506084225 | 13 | 190 | 4.8 | 12.9 | 0.00 | 0.00 | 0.00 | 91 | 1010.8 |
| 20260506084039 | 13 | 159 | 6.4 | 16.1 | 0.00 | 0.00 | 0.00 | 91 | 1010.5 |
| 20260506083800 | 13 | 162 | 4.8 | 16.1 | 0.00 | 0.00 | 0.00 | 91 | 1010.9 |
| 20260506083557 | 13 | 150 | 4.8 | 16.1 | 0.00 | 0.00 | 0.00 | 91 | 1010.6 |
| 20260506083234 | 13 | 179 | 3.2 | 16.1 | 0.00 | 0.00 | 0.00 | 90 | 1010.8 |
| 20260506083040 | 13 | 150 | 1.6 | 16.1 | 0.00 | 0.00 | 0.00 | 90 | 1010.5 |
| 20260506082751 | 13 | 238 | 8.0 | 16.1 | 0.00 | 0.00 | 0.00 | 90 | 1010.8 |
| 20260506082556 | 13 | 163 | 8.0 | 16.1 | 0.00 | 0.00 | 0.00 | 90 | 1010.5 |
| 20260506082247 | 13 | 86 | 6.4 | 14.5 | 0.00 | 0.00 | 0.00 | 90 | 1010.7 |
| 20260506082026 | 13 | 161 | 4.8 | 14.5 | 0.00 | 0.00 | 0.00 | 90 | 1010.5 |
| 20260506081743 | 13 | 160 | 8.0 | 14.5 | 0.00 | 0.00 | 0.00 | 90 | 1010.6 |
| 20260506081600 | 13 | 113 | 6.4 | 16.1 | 0.00 | 0.00 | 0.00 | 90 | 1010.4 |
| 20260506081231 | 13 | 149 | 4.8 | 16.1 | 0.00 | 0.00 | 0.00 | 90 | 1010.7 |
| 20260506081043 | 13 | 143 | 4.8 | 16.1 | 0.00 | 0.00 | 0.00 | 90 | 1010.5 |
| 20260506080724 | 14 | 129 | 8.0 | 16.1 | 0.00 | 0.00 | 0.00 | 90 | 1010.7 |
| 20260506080529 | 13 | 102 | 4.8 | 17.7 | 0.00 | 0.00 | 0.00 | 90 | 1010.4 |
| 20260506080241 | 14 | 229 | 8.0 | 17.7 | 0.00 | 0.00 | 0.00 | 90 | 1010.6 |
| 20260506073503 | 13 | 163 | 4.8 | 14.5 | 0.00 | 0.00 | 0.00 | 89 | 1010.6 |
| 20260506073225 | 14 | 123 | 4.8 | 14.5 | 0.00 | 0.00 | 0.00 | 89 | 1010.9 |
| 20260506073051 | 14 | 141 | 3.2 | 14.5 | 0.00 | 0.00 | 0.00 | 89 | 1010.6 |
| 20260506072723 | 14 | 170 | 4.8 | 14.5 | 0.00 | 0.00 | 0.00 | 88 | 1010.9 |
| 20260506072534 | 14 | 90 | 4.8 | 14.5 | 0.00 | 0.00 | 0.00 | 88 | 1010.6 |
| 20260506072227 | 14 | 169 | 9.7 | 14.5 | 0.00 | 0.00 | 0.00 | 88 | 1011.0 |
| 20260506072037 | 14 | 139 | 4.8 | 16.1 | 0.00 | 0.00 | 0.00 | 88 | 1010.8 |
| 20260506071726 | 14 | 157 | 6.4 | 24.1 | 0.00 | 0.00 | 0.00 | 88 | 1011.0 |
| 20260506071539 | 14 | 153 | 4.8 | 24.1 | 0.00 | 0.00 | 0.00 | 88 | 1010.7 |
| 20260506071232 | 14 | 147 | 8.0 | 24.1 | 0.00 | 0.00 | 0.00 | 88 | 1010.9 |
| 20260506071026 | 14 | 142 | 9.7 | 22.5 | 0.00 | 0.00 | 0.00 | 88 | 1010.6 |
| 20260506070732 | 14 | 151 | 9.7 | 22.5 | 0.00 | 0.00 | 0.00 | 88 | 1011.0 |
| 20260506070601 | 14 | 162 | 8.0 | 22.5 | 0.00 | 0.00 | 0.00 | 88 | 1010.7 |
| 20260506070257 | 14 | 159 | 6.4 | 17.7 | 0.00 | 0.00 | 0.00 | 88 | 1010.9 |
| 20260506062224 | 14 | 162 | 8.0 | 14.5 | 0.00 | 0.00 | 0.00 | 87 | 1010.9 |
| 20260506062032 | 14 | 146 | 3.2 | 8.0 | 0.00 | 0.00 | 0.00 | 87 | 1010.7 |
| 20260506061735 | 14 | 148 | 4.8 | 11.3 | 0.00 | 0.00 | 0.00 | 87 | 1011.0 |
| 20260506061502 | 14 | 178 | 3.2 | 12.9 | 0.00 | 0.00 | 0.00 | 87 | 1010.7 |
| 20260506061234 | 15 | 169 | 3.2 | 12.9 | 0.00 | 0.00 | 0.00 | 87 | 1010.9 |
| 20260506061057 | 14 | 131 | 4.8 | 12.9 | 0.00 | 0.00 | 0.00 | 87 | 1010.8 |
| 20260506060741 | 15 | 125 | 8.0 | 12.9 | 0.00 | 0.00 | 0.00 | 87 | 1011.0 |
| 20260506060527 | 14 | 107 | 6.4 | 12.9 | 0.00 | 0.00 | 0.00 | 87 | 1010.8 |
| 20260506060227 | 14 | 112 | 6.4 | 12.9 | 0.00 | 0.00 | 0.00 | 87 | 1010.9 |
| 20260506051226 | 15 | 161 | 4.8 | 14.5 | 0.00 | 0.00 | 0.00 | 84 | 1011.5 |
| 20260506051033 | 15 | 179 | 3.2 | 14.5 | 0.00 | 0.00 | 0.00 | 84 | 1011.2 |
| 20260506050726 | 15 | 163 | 6.4 | 16.1 | 0.00 | 0.00 | 0.00 | 84 | 1011.5 |
| 20260506050513 | 15 | 151 | 6.4 | 17.7 | 0.00 | 0.00 | 0.00 | 84 | 1011.3 |
| 20260506050242 | 15 | 136 | 6.4 | 17.7 | 0.00 | 0.00 | 0.00 | 83 | 1011.4 |
| 20260506045015 | 15 | 153 | 6.4 | 17.7 | 0.00 | 0.00 | 0.00 | 83 | 1011.3 |
| 20260506044740 | 15 | 137 | 6.4 | 17.7 | 0.00 | 0.00 | 0.00 | 83 | 1011.4 |
| 20260506044639 | 15 | 154 | 6.4 | 17.7 | 0.00 | 0.00 | 0.00 | 83 | 1011.3 |
| 20260506044255 | 16 | 109 | 6.4 | 14.5 | 0.00 | 0.00 | 0.00 | 83 | 1011.6 |
| 20260506044016 | 15 | 126 | 6.4 | 16.1 | 0.00 | 0.00 | 0.00 | 83 | 1011.4 |
| 20260506043730 | 16 | 157 | 4.8 | 20.9 | 0.00 | 0.00 | 0.00 | 83 | 1011.6 |
| 20260506043605 | 15 | 155 | 4.8 | 20.9 | 0.00 | 0.00 | 0.00 | 83 | 1011.3 |
| 20260506043249 | 16 | 163 | 8.0 | 20.9 | 0.00 | 0.00 | 0.00 | 82 | 1011.6 |
| 20260506043030 | 15 | 161 | 6.4 | 20.9 | 0.00 | 0.00 | 0.00 | 82 | 1011.3 |
| 20260506042742 | 16 | 150 | 4.8 | 12.9 | 0.00 | 0.00 | 0.00 | 82 | 1011.6 |
| 20260506042604 | 15 | 126 | 4.8 | 12.9 | 0.00 | 0.00 | 0.00 | 82 | 1011.4 |
| 20260506042228 | 16 | 153 | 4.8 | 12.9 | 0.00 | 0.00 | 0.00 | 82 | 1011.6 |
| 20260506042010 | 15 | 156 | 4.8 | 12.9 | 0.00 | 0.00 | 0.00 | 82 | 1011.4 |
| 20260506041727 | 16 | 103 | 4.8 | 16.1 | 0.00 | 0.00 | 0.00 | 82 | 1011.6 |
| 20260506041554 | 15 | 123 | 4.8 | 19.3 | 0.00 | 0.00 | 0.00 | 82 | 1011.4 |
| 20260506041226 | 16 | 130 | 4.8 | 19.3 | 0.00 | 0.00 | 0.00 | 82 | 1011.8 |
| 20260506041038 | 16 | 227 | 6.4 | 19.3 | 0.00 | 0.00 | 0.00 | 82 | 1011.4 |
| 20260506040724 | 16 | 180 | 8.0 | 19.3 | 0.00 | 0.00 | 0.00 | 82 | 1011.6 |
| 20260506040510 | 16 | 100 | 6.4 | 16.1 | 0.00 | 0.00 | 0.00 | 82 | 1011.5 |
| 20260506040223 | 16 | 168 | 4.8 | 16.1 | 0.00 | 0.00 | 0.00 | 82 | 1011.7 |
| 20260506040100 | 16 | 170 | 3.2 | 20.9 | 0.00 | 0.00 | 0.00 | 82 | 1011.5 |
| 20260506035730 | 16 | 131 | 4.8 | 20.9 | 0.00 | 0.00 | 0.00 | 82 | 1011.7 |
| 20260506035540 | 16 | 154 | 3.2 | 20.9 | 0.00 | 0.00 | 0.00 | 82 | 1011.4 |
| 20260506035257 | 16 | 175 | 8.0 | 22.5 | 0.00 | 0.00 | 0.00 | 82 | 1011.7 |
| 20260506035023 | 16 | 175 | 4.8 | 16.1 | 0.00 | 0.00 | 0.00 | 82 | 1011.5 |
| 20260506034728 | 16 | 153 | 4.8 | 16.1 | 0.00 | 0.00 | 0.00 | 81 | 1011.6 |
| 20260506034530 | 16 | 171 | 4.8 | 16.1 | 0.00 | 0.00 | 0.00 | 81 | 1011.5 |
| 20260506034226 | 16 | 128 | 8.0 | 16.1 | 0.00 | 0.00 | 0.00 | 81 | 1011.7 |
| 20260506034104 | 16 | 98 | 4.8 | 16.1 | 0.00 | 0.00 | 0.00 | 81 | 1011.5 |
| 20260506033802 | 16 | 130 | 4.8 | 16.1 | 0.00 | 0.00 | 0.00 | 81 | 1011.8 |
| 20260506033527 | 16 | 145 | 3.2 | 14.5 | 0.00 | 0.00 | 0.00 | 81 | 1011.5 |
| 20260506033244 | 16 | 157 | 6.4 | 19.3 | 0.00 | 0.00 | 0.00 | 81 | 1011.8 |
| 20260506033031 | 16 | 134 | 4.8 | 20.9 | 0.00 | 0.00 | 0.00 | 80 | 1011.5 |
| 20260506032743 | 16 | 169 | 3.2 | 22.5 | 0.00 | 0.00 | 0.00 | 80 | 1011.8 |
| 20260506032531 | 16 | 161 | 4.8 | 22.5 | 0.00 | 0.00 | 0.00 | 80 | 1011.5 |
| 20260506032227 | 16 | 126 | 6.4 | 22.5 | 0.00 | 0.00 | 0.00 | 80 | 1011.8 |
| 20260506032033 | 16 | 193 | 6.4 | 19.3 | 0.00 | 0.00 | 0.00 | 80 | 1011.5 |
| 20260506031725 | 16 | 75 | 8.0 | 19.3 | 0.00 | 0.00 | 0.00 | 79 | 1011.8 |
| 20260506031535 | 16 | 141 | 1.6 | 19.3 | 0.00 | 0.00 | 0.00 | 79 | 1011.6 |
| 20260506031237 | 16 | 144 | 6.4 | 19.3 | 0.00 | 0.00 | 0.00 | 79 | 1011.9 |
| 20260506031008 | 16 | 192 | 3.2 | 19.3 | 0.00 | 0.00 | 0.00 | 78 | 1011.6 |
| 20260506030745 | 16 | 123 | 4.8 | 19.3 | 0.00 | 0.00 | 0.00 | 78 | 1011.8 |
| 20260506030552 | 16 | 169 | 8.0 | 19.3 | 0.00 | 0.00 | 0.00 | 78 | 1011.5 |
| 20260506030237 | 16 | 137 | 3.2 | 19.3 | 0.00 | 0.00 | 0.00 | 78 | 1011.8 |
| 20260506030057 | 16 | 157 | 3.2 | 19.3 | 0.00 | 0.00 | 0.00 | 78 | 1011.5 |
| 20260506025730 | 16 | 106 | 4.8 | 17.7 | 0.00 | 0.00 | 0.00 | 77 | 1011.8 |
| 20260506025538 | 16 | 138 | 1.6 | 17.7 | 0.00 | 0.00 | 0.00 | 77 | 1011.5 |
| 20260506025236 | 16 | 292 | 1.6 | 17.7 | 0.00 | 0.00 | 0.00 | 77 | 1011.9 |
| 20260506025006 | 16 | 167 | 6.4 | 17.7 | 0.00 | 0.00 | 0.00 | 76 | 1011.4 |
| 20260506024727 | 16 | 107 | 4.8 | 16.1 | 0.00 | 0.00 | 0.00 | 76 | 1011.6 |
| 20260506024505 | 16 | 316 | 1.6 | 19.3 | 0.00 | 0.00 | 0.00 | 76 | 1011.3 |
| 20260506024237 | 16 | 194 | 6.4 | 19.3 | 0.00 | 0.00 | 0.00 | 76 | 1011.5 |
| 20260506024052 | 16 | 117 | 3.2 | 19.3 | 0.00 | 0.00 | 0.00 | 76 | 1011.4 |
| 20260506023753 | 17 | 168 | 3.2 | 16.1 | 0.00 | 0.00 | 0.00 | 75 | 1011.5 |
| 20260506023504 | 16 | 187 | 6.4 | 17.7 | 0.00 | 0.00 | 0.00 | 75 | 1011.4 |
| 20260506023228 | 17 | 143 | 6.4 | 19.3 | 0.00 | 0.00 | 0.00 | 75 | 1011.7 |
| 20260506023100 | 16 | 62 | 6.4 | 19.3 | 0.00 | 0.00 | 0.00 | 75 | 1011.4 |
| 20260506022745 | 16 | 150 | 8.0 | 19.3 | 0.00 | 0.00 | 0.00 | 75 | 1011.6 |
| 20260506022508 | 16 | 105 | 4.8 | 16.1 | 0.00 | 0.00 | 0.00 | 76 | 1011.3 |
| 20260506022243 | 17 | 144 | 6.4 | 16.1 | 0.00 | 0.00 | 0.00 | 75 | 1011.4 |
| 20260506022053 | 16 | 185 | 3.2 | 16.1 | 0.00 | 0.00 | 0.00 | 75 | 1011.3 |
| 20260506021732 | 16 | 117 | 9.7 | 16.1 | 0.00 | 0.00 | 0.00 | 75 | 1011.5 |
| 20260506021545 | 16 | 109 | 6.4 | 16.1 | 0.00 | 0.00 | 0.00 | 75 | 1011.2 |
| 20260506021240 | 16 | 223 | 3.2 | 14.5 | 0.00 | 0.00 | 0.00 | 75 | 1011.5 |
| 20260506021023 | 16 | 150 | 1.6 | 22.5 | 0.00 | 0.00 | 0.00 | 75 | 1011.2 |
| 20260506020724 | 17 | 140 | 8.0 | 22.5 | 0.00 | 0.00 | 0.00 | 75 | 1011.4 |
| 20260506020516 | 16 | 150 | 1.6 | 22.5 | 0.00 | 0.00 | 0.00 | 75 | 1011.2 |
| 20260506020225 | 17 | 228 | 8.0 | 22.5 | 0.00 | 0.00 | 0.00 | 75 | 1011.4 |
| 20260506020005 | 16 | 158 | 3.2 | 19.3 | 0.00 | 0.00 | 0.00 | 75 | 1011.2 |
| 20260506015743 | 17 | 155 | 9.7 | 24.1 | 0.00 | 0.00 | 0.00 | 75 | 1011.3 |
| 20260506015545 | 16 | 169 | 4.8 | 24.1 | 0.00 | 0.00 | 0.00 | 75 | 1011.1 |
| 20260506015232 | 16 | 169 | 8.0 | 24.1 | 0.00 | 0.00 | 0.00 | 76 | 1011.4 |
| 20260506015034 | 16 | 94 | 4.8 | 16.1 | 0.00 | 0.00 | 0.00 | 76 | 1011.2 |
| 20260506014730 | 16 | 128 | 3.2 | 14.5 | 0.00 | 0.00 | 0.00 | 76 | 1011.3 |
| 20260506014509 | 16 | 132 | 4.8 | 14.5 | 0.00 | 0.00 | 0.00 | 76 | 1011.0 |
| 20260506014237 | 16 | 171 | 4.8 | 14.5 | 0.00 | 0.00 | 0.00 | 75 | 1011.3 |
| 20260506014055 | 16 | 139 | 6.4 | 14.5 | 0.00 | 0.00 | 0.00 | 75 | 1011.1 |
| 20260506013737 | 16 | 236 | 4.8 | 16.1 | 0.00 | 0.00 | 0.00 | 75 | 1011.3 |
| 20260506013537 | 16 | 132 | 3.2 | 16.1 | 0.00 | 0.00 | 0.00 | 76 | 1011.0 |
| 20260506013237 | 16 | 140 | 6.4 | 16.1 | 0.00 | 0.00 | 0.00 | 75 | 1011.2 |
| 20260506013017 | 16 | 133 | 4.8 | 20.9 | 0.00 | 0.00 | 0.00 | 75 | 1011.0 |
| 20260506012754 | 16 | 178 | 3.2 | 20.9 | 0.00 | 0.00 | 0.00 | 76 | 1011.2 |
| 20260506012543 | 16 | 157 | 4.8 | 20.9 | 0.00 | 0.00 | 0.00 | 75 | 1010.9 |
| 20260506012249 | 16 | 129 | 11.3 | 20.9 | 0.00 | 0.00 | 0.00 | 75 | 1011.0 |
| 20260506012100 | 16 | 107 | 4.8 | 16.1 | 0.00 | 0.00 | 0.00 | 75 | 1010.9 |
| 20260506011726 | 16 | 142 | 3.2 | 14.5 | 0.00 | 0.00 | 0.00 | 75 | 1011.0 |
| 20260506011547 | 16 | 191 | 3.2 | 14.5 | 0.00 | 0.00 | 0.00 | 75 | 1010.7 |
| 20260506011231 | 16 | 249 | 1.6 | 14.5 | 0.00 | 0.00 | 0.00 | 75 | 1010.9 |
| 20260506011058 | 16 | 254 | 3.2 | 14.5 | 0.00 | 0.00 | 0.00 | 75 | 1010.7 |
| 20260506010758 | 16 | 155 | 6.4 | 14.5 | 0.00 | 0.00 | 0.00 | 75 | 1010.9 |
| 20260506010508 | 16 | 156 | 1.6 | 12.9 | 0.00 | 0.00 | 0.00 | 74 | 1010.6 |
| 20260506010242 | 16 | 123 | 1.6 | 19.3 | 0.00 | 0.00 | 0.00 | 74 | 1010.7 |
| 20260506010057 | 16 | 155 | 4.8 | 19.3 | 0.00 | 0.00 | 0.00 | 74 | 1010.6 |
| 20260506005734 | 17 | 153 | 4.8 | 19.3 | 0.00 | 0.00 | 0.00 | 74 | 1010.8 |
| 20260506005534 | 16 | 140 | 3.2 | 16.1 | 0.00 | 0.00 | 0.00 | 74 | 1010.5 |
| 20260506005231 | 17 | 74 | 6.4 | 17.7 | 0.00 | 0.00 | 0.00 | 73 | 1010.7 |
| 20260506005004 | 16 | 125 | 6.4 | 17.7 | 0.00 | 0.00 | 0.00 | 73 | 1010.5 |
| 20260506004729 | 17 | 138 | 4.8 | 17.7 | 0.00 | 0.00 | 0.00 | 73 | 1010.6 |
| 20260506004554 | 16 | 139 | 6.4 | 17.7 | 0.00 | 0.00 | 0.00 | 73 | 1010.4 |
| 20260506004240 | 17 | 152 | 4.8 | 19.3 | 0.00 | 0.00 | 0.00 | 74 | 1010.7 |
| 20260506004039 | 16 | 164 | 3.2 | 19.3 | 0.00 | 0.00 | 0.00 | 74 | 1010.4 |
| 20260506003727 | 16 | 194 | 6.4 | 19.3 | 0.00 | 0.00 | 0.00 | 74 | 1010.5 |
| 20260506003539 | 16 | 175 | 1.6 | 8.0 | 0.00 | 0.00 | 0.00 | 74 | 1010.3 |
| 20260506003225 | 16 | 154 | 1.6 | 8.0 | 0.00 | 0.00 | 0.00 | 74 | 1010.5 |
| 20260506003043 | 16 | 177 | 1.6 | 11.3 | 0.00 | 0.00 | 0.00 | 74 | 1010.3 |
| 20260506002724 | 17 | 128 | 3.2 | 11.3 | 0.00 | 0.00 | 0.00 | 73 | 1010.3 |
| 20260506002541 | 16 | 321 | 1.6 | 11.3 | 0.00 | 0.00 | 0.00 | 73 | 1010.2 |
| 20260506002233 | 17 | 136 | 4.8 | 11.3 | 0.00 | 0.00 | 0.00 | 73 | 1010.3 |
| 20260506002033 | 16 | 162 | 3.2 | 12.9 | 0.00 | 0.00 | 0.00 | 73 | 1010.1 |
| 20260506001729 | 17 | 119 | 1.6 | 16.1 | 0.00 | 0.00 | 0.00 | 73 | 1010.3 |
| 20260506001505 | 16 | 184 | 1.6 | 16.1 | 0.00 | 0.00 | 0.00 | 72 | 1010.1 |
| 20260506001224 | 17 | 103 | 6.4 | 16.1 | 0.00 | 0.00 | 0.00 | 72 | 1010.3 |
| 20260506001055 | 16 | 162 | 8.0 | 16.1 | 0.00 | 0.00 | 0.00 | 72 | 1010.0 |
| 20260506000742 | 17 | 132 | 8.0 | 14.5 | 0.00 | 0.00 | 0.00 | 72 | 1010.1 |
| 20260506000536 | 17 | 141 | 4.8 | 19.3 | 0.00 | 0.00 | 0.00 | 72 | 1010.0 |
| 20260506000231 | 17 | 176 | 3.2 | 19.3 | 0.00 | 0.00 | 0.00 | 71 | 1010.2 |
| 20260506000013 | 17 | 207 | 3.2 | 19.3 | 0.00 | 0.00 | 0.00 | 71 | 1010.0 |
| 20260505235731 | 17 | 232 | 8.0 | 19.3 | 0.00 | 0.00 | 0.00 | 71 | 1010.1 |
| 20260505235601 | 17 | 93 | 4.8 | 17.7 | 0.00 | 0.00 | 0.00 | 71 | 1010.0 |
| 20260505235228 | 17 | 213 | 3.2 | 24.1 | 0.00 | 0.00 | 0.00 | 71 | 1010.0 |
| 20260505235048 | 17 | 154 | 6.4 | 24.1 | 0.00 | 0.00 | 0.00 | 70 | 1009.8 |
| 20260505234726 | 17 | 157 | 9.7 | 24.1 | 0.00 | 0.00 | 0.00 | 70 | 1010.1 |
| 20260505234555 | 17 | 140 | 4.8 | 19.3 | 0.00 | 0.00 | 0.00 | 70 | 1009.8 |
| 20260505234229 | 17 | 130 | 6.4 | 17.7 | 0.00 | 0.00 | 0.00 | 70 | 1010.0 |
| 20260505234042 | 17 | 129 | 6.4 | 17.7 | 0.00 | 0.00 | 0.00 | 70 | 1009.8 |
| 20260505233727 | 18 | 117 | 8.0 | 19.3 | 0.00 | 0.00 | 0.00 | 69 | 1009.9 |
| 20260505233531 | 17 | 123 | 8.0 | 19.3 | 0.00 | 0.00 | 0.00 | 69 | 1009.6 |
| 20260505233225 | 18 | 209 | 8.0 | 19.3 | 0.00 | 0.00 | 0.00 | 69 | 1009.8 |
| 20260505233009 | 17 | 192 | 6.4 | 17.7 | 0.00 | 0.00 | 0.00 | 70 | 1009.7 |
| 20260505232800 | 18 | 132 | 4.8 | 17.7 | 0.00 | 0.00 | 0.00 | 70 | 1009.8 |
| 20260505232533 | 17 | 158 | 3.2 | 11.3 | 0.00 | 0.00 | 0.00 | 70 | 1009.4 |
| 20260505232227 | 18 | 173 | 3.2 | 11.3 | 0.00 | 0.00 | 0.00 | 70 | 1009.7 |
| 20260505232040 | 18 | 225 | 1.6 | 8.0 | 0.00 | 0.00 | 0.00 | 70 | 1009.3 |
| 20260505231744 | 18 | 20 | 1.6 | 11.3 | 0.00 | 0.00 | 0.00 | 70 | 1009.6 |
| 20260505231539 | 18 | 179 | 3.2 | 11.3 | 0.00 | 0.00 | 0.00 | 69 | 1009.1 |
| 20260505231233 | 18 | 144 | 4.8 | 11.3 | 0.00 | 0.00 | 0.00 | 69 | 1009.4 |
| 20260505231024 | 18 | 169 | 6.4 | 17.7 | 0.00 | 0.00 | 0.00 | 69 | 1009.2 |
| 20260505230729 | 18 | 165 | 3.2 | 17.7 | 0.00 | 0.00 | 0.00 | 69 | 1009.2 |
| 20260505230602 | 18 | 171 | 3.2 | 17.7 | 0.00 | 0.00 | 0.00 | 69 | 1009.0 |
| 20260505230230 | 18 | 160 | 6.4 | 17.7 | 0.00 | 0.00 | 0.00 | 69 | 1009.2 |
| 20260505230049 | 18 | 139 | 6.4 | 17.7 | 0.00 | 0.00 | 0.00 | 68 | 1009.0 |
| 20260505225747 | 18 | 199 | 4.8 | 17.7 | 0.00 | 0.00 | 0.00 | 68 | 1009.0 |
| 20260505225503 | 18 | 169 | 1.6 | 17.7 | 0.00 | 0.00 | 0.00 | 69 | 1008.9 |
| 20260505225256 | 18 | 172 | 4.8 | 17.7 | 0.00 | 0.00 | 0.00 | 69 | 1009.3 |
| 20260505225035 | 18 | 123 | 4.8 | 14.5 | 0.00 | 0.00 | 0.00 | 68 | 1009.1 |
| 20260505224735 | 18 | 156 | 6.4 | 14.5 | 0.00 | 0.00 | 0.00 | 68 | 1009.6 |
| 20260505224506 | 18 | 208 | 3.2 | 12.9 | 0.00 | 0.00 | 0.00 | 68 | 1009.2 |
| 20260505224234 | 19 | 175 | 3.2 | 12.9 | 0.00 | 0.00 | 0.00 | 68 | 1009.4 |
| 20260505224059 | 18 | 178 | 4.8 | 14.5 | 0.00 | 0.00 | 0.00 | 67 | 1009.2 |
| 20260505223738 | 19 | 142 | 1.6 | 16.1 | 0.00 | 0.00 | 0.00 | 68 | 1009.4 |
| 20260505223535 | 18 | 117 | 3.2 | 16.1 | 0.00 | 0.00 | 0.00 | 67 | 1009.1 |
| 20260505223238 | 19 | 221 | 8.0 | 16.1 | 0.00 | 0.00 | 0.00 | 67 | 1009.3 |
| 20260505223004 | 19 | 117 | 6.4 | 16.1 | 0.00 | 0.00 | 0.00 | 67 | 1009.2 |
| 20260505222729 | 19 | 87 | 3.2 | 19.3 | 0.00 | 0.00 | 0.00 | 68 | 1009.3 |
| 20260505222552 | 19 | 58 | 3.2 | 19.3 | 0.00 | 0.00 | 0.00 | 67 | 1009.0 |
| 20260505222241 | 19 | 201 | 8.0 | 19.3 | 0.00 | 0.00 | 0.00 | 67 | 1009.2 |
| 20260505222037 | 19 | 140 | 6.4 | 19.3 | 0.00 | 0.00 | 0.00 | 66 | 1009.1 |
| 20260505221743 | 20 | 109 | 4.8 | 16.1 | 0.00 | 0.00 | 0.00 | 66 | 1009.3 |
| 20260505221553 | 19 | 132 | 4.8 | 17.7 | 0.00 | 0.00 | 0.00 | 66 | 1009.0 |
| 20260505221232 | 20 | 146 | 4.8 | 17.7 | 0.00 | 0.00 | 0.00 | 66 | 1009.2 |
| 20260505221039 | 19 | 171 | 8.0 | 19.3 | 0.00 | 0.00 | 0.00 | 66 | 1008.9 |
| 20260505220728 | 20 | 85 | 4.8 | 19.3 | 0.00 | 0.00 | 0.00 | 66 | 1009.2 |
| 20260505220513 | 20 | 153 | 6.4 | 19.3 | 0.00 | 0.00 | 0.00 | 66 | 1008.9 |
| 20260505220226 | 20 | 177 | 4.8 | 19.3 | 0.00 | 0.00 | 0.00 | 66 | 1009.1 |
| 20260505220001 | 20 | 203 | 1.6 | 24.1 | 0.00 | 0.00 | 0.00 | 66 | 1008.9 |
| 20260505215724 | 20 | 28 | 9.7 | 24.1 | 0.00 | 0.00 | 0.00 | 65 | 1009.2 |
| 20260505215550 | 20 | 78 | 4.8 | 29.0 | 0.00 | 0.00 | 0.00 | 66 | 1008.9 |
| 20260505215224 | 20 | 132 | 4.8 | 32.2 | 0.00 | 0.00 | 0.00 | 65 | 1009.1 |
| 20260505215059 | 20 | 169 | 4.8 | 32.2 | 0.00 | 0.00 | 0.00 | 66 | 1008.8 |
| 20260505214742 | 20 | 142 | 11.3 | 32.2 | 0.00 | 0.00 | 0.00 | 65 | 1009.0 |
| 20260505214558 | 20 | 127 | 8.0 | 19.3 | 0.00 | 0.00 | 0.00 | 65 | 1008.7 |
| 20260505214249 | 20 | 199 | 3.2 | 14.5 | 0.00 | 0.00 | 0.00 | 65 | 1009.0 |
| 20260505214022 | 20 | 134 | 3.2 | 17.7 | 0.00 | 0.00 | 0.00 | 64 | 1008.7 |
| 20260505213727 | 20 | 295 | 4.8 | 30.6 | 0.00 | 0.00 | 0.00 | 65 | 1008.9 |
| 20260505213522 | 20 | 170 | 3.2 | 30.6 | 0.00 | 0.00 | 0.00 | 65 | 1008.7 |
| 20260505213226 | 20 | 242 | 8.0 | 30.6 | 0.00 | 0.00 | 0.00 | 64 | 1008.8 |
| 20260505213024 | 20 | 178 | 4.8 | 22.5 | 0.00 | 0.00 | 0.00 | 65 | 1008.7 |
| 20260505212741 | 20 | 297 | 4.8 | 22.5 | 0.00 | 0.00 | 0.00 | 64 | 1008.8 |
| 20260505212522 | 20 | 150 | 3.2 | 22.5 | 0.00 | 0.00 | 0.00 | 65 | 1008.6 |
| 20260505212230 | 20 | 131 | 8.0 | 22.5 | 0.00 | 0.00 | 0.00 | 63 | 1008.9 |
| 20260505212058 | 20 | 152 | 4.8 | 16.1 | 0.00 | 0.00 | 0.00 | 63 | 1008.6 |
| 20260505211728 | 21 | 243 | 6.4 | 17.7 | 0.00 | 0.00 | 0.00 | 63 | 1009.0 |
| 20260505211545 | 20 | 129 | 6.4 | 17.7 | 0.00 | 0.00 | 0.00 | 63 | 1008.8 |
| 20260505211226 | 21 | 153 | 6.4 | 17.7 | 0.00 | 0.00 | 0.00 | 62 | 1009.0 |
| 20260505211033 | 21 | 136 | 6.4 | 17.7 | 0.00 | 0.00 | 0.00 | 62 | 1008.8 |
| 20260505210723 | 21 | 135 | 8.0 | 14.5 | 0.00 | 0.00 | 0.00 | 62 | 1009.0 |
| 20260505210500 | 21 | 155 | 3.2 | 17.7 | 0.00 | 0.00 | 0.00 | 63 | 1008.7 |
| 20260505210227 | 21 | 146 | 3.2 | 17.7 | 0.00 | 0.00 | 0.00 | 63 | 1008.9 |
| 20260505210004 | 21 | 221 | 4.8 | 17.7 | 0.00 | 0.00 | 0.00 | 62 | 1008.6 |
| 20260505205743 | 21 | 167 | 6.4 | 17.7 | 0.00 | 0.00 | 0.00 | 62 | 1008.9 |
| 20260505205501 | 21 | 83 | 6.4 | 14.5 | 0.00 | 0.00 | 0.00 | 61 | 1008.5 |
| 20260505205233 | 21 | 136 | 4.8 | 12.9 | 0.00 | 0.00 | 0.00 | 62 | 1008.8 |
| 20260505205056 | 21 | 213 | 4.8 | 14.5 | 0.00 | 0.00 | 0.00 | 61 | 1008.6 |
| 20260505204729 | 21 | 173 | 1.6 | 14.5 | 0.00 | 0.00 | 0.00 | 63 | 1008.8 |
| 20260505204542 | 21 | 169 | 3.2 | 14.5 | 0.00 | 0.00 | 0.00 | 62 | 1008.6 |
| 20260505204237 | 21 | 103 | 4.8 | 16.1 | 0.00 | 0.00 | 0.00 | 62 | 1008.7 |
| 20260505204023 | 21 | 165 | 4.8 | 24.1 | 0.00 | 0.00 | 0.00 | 62 | 1008.6 |
| 20260505203729 | 21 | 302 | 8.0 | 24.1 | 0.00 | 0.00 | 0.00 | 61 | 1008.7 |
| 20260505203522 | 21 | 151 | 4.8 | 24.1 | 0.00 | 0.00 | 0.00 | 61 | 1008.5 |
| 20260505203237 | 21 | 149 | 8.0 | 24.1 | 0.00 | 0.00 | 0.00 | 62 | 1008.7 |
| 20260505203059 | 21 | 213 | 1.6 | 14.5 | 0.00 | 0.00 | 0.00 | 62 | 1008.5 |
| 20260505202749 | 21 | 215 | 3.2 | 16.1 | 0.00 | 0.00 | 0.00 | 62 | 1008.9 |
| 20260505202509 | 21 | 131 | 4.8 | 16.1 | 0.00 | 0.00 | 0.00 | 62 | 1008.6 |
| 20260505202242 | 21 | 165 | 4.8 | 16.1 | 0.00 | 0.00 | 0.00 | 61 | 1008.8 |
| 20260505202056 | 21 | 91 | 3.2 | 14.5 | 0.00 | 0.00 | 0.00 | 61 | 1008.7 |
| 20260505201734 | 21 | 155 | 8.0 | 16.1 | 0.00 | 0.00 | 0.00 | 61 | 1008.8 |